Regional Weather Roundup
Issued by NWS Green Bay, WI

Home | Current Version | Previous Version | Text Only | Print | Product List | Glossary On
Versions: 1 2 3 4 5 6 7 8 9 10 11 12 13 14 15 16 17 18 19 20 21 22 23 24 25 26 27 28 29 30 31 32 33 34 35 36 37 38 39 40 41 42 43 44 45 46 47 48 49 50
000
ASUS43 KGRB 141711
RWRGRB

NORTH-CENTRAL AND NORTHEAST WISCONSIN REGIONAL WEATHER ROUNDUP
NATIONAL WEATHER SERVICE GREEN BAY WI
1100 AM CST THU DEC 14 2017

WIZ005-009-010>012-018-019-141800-
NORTH CENTRAL WISCONSIN

CITY           SKY/WX    TMP DP  RH WIND       PRES   REMARKS
IRONWOOD       FLURRIES  16  11  80 SW8       29.96F WCI   5
MANITOWISH WTR LGT SNOW  13  10  87 W9        29.94S WCI   1
ARBOR VITAE    LGT SNOW  17  13  86 NW6       29.94S WCI   8
EAGLE RIVER    FLURRIES  15  10  81 W9        29.93S WCI   3
LAND O LAKES   FLURRIES  16  10  77 NW8       29.93F WCI   5
RHINELANDER    CLOUDY    15  12  88 W8        29.94F WCI   4
PHILLIPS       FLURRIES  13  12  95 CALM      29.96F
ANTIGO         FLURRIES  14  11  87 NW6       29.96F WCI   5
TOMAHAWK       LGT SNOW  14  11  89 CALM      29.97S
MERRILL        LGT SNOW  15  11  85 CALM      29.99S
$$

WIZ013-073-141800-
NORTHEAST WISCONSIN

CITY           SKY/WX    TMP DP  RH WIND       PRES   REMARKS
IRON MOUNTAIN  PTSUNNY   19  10  68 W9        29.93F WCI   8
MARINETTE      SUNNY     20  14  77 W5        30.03F
OCONTO         SUNNY     14  12  91 W5        30.03F WCI   6
$$

WIZ017-030-035>037-045-141800-
CENTRAL WISCONSIN

CITY           SKY/WX    TMP DP  RH WIND       PRES   REMARKS
MEDFORD        LGT SNOW  14  12  91 SW5       29.97F WCI   7
WAUSAU         CLOUDY    15  11  83 NW5       29.98F WCI   8
MOSINEE        CLOUDY    14  12  92 W5        30.01S WCI   6
MARSHFIELD     CLOUDY    15  12  88 W7        30.00S WCI   5
WISC RAPIDS    MOSUNNY   15  10  80 SW5       30.05S WCI   8
STEVENS POINT  CLOUDY    14  14  98 SW3       30.02F
WAUPACA        MOSUNNY   21  14  74 SW5       30.05S
SHAWANO        SUNNY     19  10  68 NW6       30.03F
CLINTONVILLE   SUNNY     16  10  79 W5        30.03F WCI   9
WAUTOMA        MOSUNNY   23  17  78 CALM      30.06S
$$

WIZ038-039-048-051-141800-
FOX VALLEY

CITY           SKY/WX    TMP DP  RH WIND       PRES   REMARKS
NWS GREEN BAY  SUNNY     15   9  76 CALM      30.05S
APPLETON       MOSUNNY   14   7  73 W5        30.02S WCI   6
OSHKOSH        SUNNY     16  10  77 W5        30.04F WCI   9
FOND DU LAC    SUNNY     19   9  65 CALM      30.05F
$$

WIZ022-050-052-141800-
EAST CENTRAL WISCONSIN

CITY           SKY/WX    TMP DP  RH WIND       PRES   REMARKS
EPHRAIM        FAIR      19  10  68 W9        29.99S WCI   7
WASHINGTON ISL FAIR      19   9  63 N8        29.99F WCI   9
STURGEON BAY   SUNNY     21  11  65 W9        30.02F
MANITOWOC      SUNNY     23  12  62 W5        30.05F
SHEBOYGAN      SUNNY     16  10  77 NW5       30.04F WCI   9
$$

LMZ563-521-522-541>543-141800-
LAKESHORE

STATION/POSITION TIME  TEMP    WIND        PRES    VSBY  WAVE
                       AIR SEA DIR/SP/G                  HT/PER
                 (UTC) (F)     (DEG/KT/KT) (MB)    (MI)  (FT/S)
SHEBOYGAN LKSHOR 1700   17     300/  6/  7 1018.6F
KEWAUNEE LKSHORE 1648   19     300/  3/  4 1016.5F
NORTHPORT PIER   1655   20     300/  7/ 15 1015.6F
MENOMINEE LKSHOR 1648   16     230/  5/  9 1016.5F
$$




USA.gov is the U.S. government's official web portal to all federal, state and local government web resources and services.